TimeAKST,TemperatureF,Dew PointF,Humidity,Sea Level PressureIn,VisibilityMPH,Wind Direction,Wind SpeedMPH,Gust SpeedMPH,PrecipitationIn,Events,Conditions,WindDirDegrees,DateUTC
12:02 AM,3.9,-2.0,76,29.36,2.5,Calm,Calm,-,0.00,Snow,Light Snow,0,2013-02-20 09:02:00
12:15 AM,3.9,-0.9,80,29.36,2.0,Calm,Calm,-,0.00,Snow,Light Snow,0,2013-02-20 09:15:00
12:22 AM,3.9,-0.9,80,29.36,1.5,Calm,Calm,-,0.00,Snow,Light Snow,0,2013-02-20 09:22:00
12:53 AM,3.0,-0.9,84,29.52,1.5,Calm,Calm,-,0.01,Snow,Light Snow,0,2013-02-20 09:53:00
1:22 AM,3.0,-0.9,84,29.34,2.0,Calm,Calm,-,0.01,Snow,Light Snow,0,2013-02-20 10:22:00
1:50 AM,3.2,-0.4,85,29.33,2.0,Calm,Calm,-,0.01,Snow,Light Snow,0,2013-02-20 10:50:00
1:53 AM,3.0,-0.9,84,29.49,2.5,Calm,Calm,-,0.01,Snow,Light Snow,0,2013-02-20 10:53:00
2:29 AM,3.0,-0.9,84,29.31,1.8,Calm,Calm,-,0.01,Snow,Light Snow,0,2013-02-20 11:29:00
2:32 AM,3.0,-0.9,84,29.31,2.0,Calm,Calm,-,0.01,Snow,Light Snow,0,2013-02-20 11:32:00
3:13 AM,3.0,-0.9,84,29.29,1.8,Calm,Calm,-,0.00,Snow,Light Snow,0,2013-02-20 12:13:00
3:39 AM,3.0,-0.9,84,29.28,2.0,Calm,Calm,-,0.01,Snow,Light Snow,0,2013-02-20 12:39:00
3:53 AM,3.0,-0.9,84,29.44,1.8,Calm,Calm,-,0.01,Snow,Light Snow,0,2013-02-20 12:53:00
4:04 AM,3.0,-0.9,84,29.27,2.0,Calm,Calm,-,0.01,Snow,Light Snow,0,2013-02-20 13:04:00
4:19 AM,3.0,-0.9,84,29.27,3.0,Calm,Calm,-,0.01,Snow,Light Snow,0,2013-02-20 13:19:00
4:53 AM,3.0,-0.9,84,29.41,3.0,Calm,Calm,-,0.01,Snow,Light Snow,0,2013-02-20 13:53:00
5:53 AM,3.9,-0.9,80,29.39,8.0,Calm,Calm,-,0.00,Snow,Light Snow,0,2013-02-20 14:53:00
6:53 AM,3.0,-0.9,84,29.37,3.0,Calm,Calm,-,0.01,Snow,Light Snow,0,2013-02-20 15:53:00
7:53 AM,3.0,-0.9,84,29.36,3.0,Calm,Calm,-,0.00,Snow,Light Snow,0,2013-02-20 16:53:00
8:53 AM,3.9,-0.0,84,29.35,7.0,Calm,Calm,-,0.00,Snow,Light Snow,0,2013-02-20 17:53:00
9:53 AM,3.9,-0.0,84,29.33,2.0,Calm,Calm,-,0.01,Snow,Light Snow,0,2013-02-20 18:53:00
10:53 AM,5.0,1.0,84,29.33,2.0,SE,3.5,-,0.01,Snow,Light Snow,140,2013-02-20 19:53:00
11:06 AM,5.0,1.0,84,29.17,1.0,SE,3.5,-,0.00,Snow,Light Snow,130,2013-02-20 20:06:00
11:51 AM,5.0,1.4,85,29.17,1.0,Calm,Calm,-,0.02,Snow,Light Snow,0,2013-02-20 20:51:00
11:53 AM,6.1,1.9,83,29.32,1.0,Calm,Calm,-,0.02,Snow,Light Snow,0,2013-02-20 20:53:00
12:53 PM,7.0,1.9,80,29.32,1.0,Calm,Calm,-,0.01,Snow,Light Snow,0,2013-02-20 21:53:00
1:22 PM,7.0,3.0,84,29.16,5.0,Calm,Calm,-,0.00,,Overcast,0,2013-02-20 22:22:00
1:53 PM,7.0,3.0,84,29.31,10.0,SSE,3.5,-,0.00,,Overcast,150,2013-02-20 22:53:00
2:53 PM,9.0,3.9,80,29.30,10.0,ESE,3.5,-,N/A,,Overcast,110,2013-02-20 23:53:00
4:53 PM,9.0,3.0,77,29.30,10.0,Calm,Calm,-,N/A,,Overcast,0,2013-02-21 01:53:00
5:53 PM,6.1,3.0,87,29.31,10.0,Calm,Calm,-,N/A,,Overcast,0,2013-02-21 02:53:00
6:53 PM,3.9,-0.0,84,29.33,10.0,Calm,Calm,-,N/A,,Overcast,0,2013-02-21 03:53:00
7:53 PM,3.9,1.0,88,29.34,10.0,SE,3.5,-,N/A,,Overcast,130,2013-02-21 04:53:00
8:53 PM,5.0,1.9,87,29.34,10.0,SE,3.5,-,N/A,,Mostly Cloudy,140,2013-02-21 05:53:00
9:29 PM,3.0,-0.0,87,29.19,10.0,Calm,Calm,-,N/A,,Mostly Cloudy,0,2013-02-21 06:29:00
9:36 PM,3.0,-0.0,87,29.19,10.0,Calm,Calm,-,N/A,,Overcast,0,2013-02-21 06:36:00
9:53 PM,1.9,-2.0,83,29.36,10.0,Calm,Calm,-,N/A,,Overcast,0,2013-02-21 06:53:00
10:31 PM,-0.0,-2.9,88,29.20,10.0,Calm,Calm,-,N/A,,Overcast,0,2013-02-21 07:31:00
10:53 PM,1.9,-2.0,83,29.36,10.0,Calm,Calm,-,N/A,,Overcast,0,2013-02-21 07:53:00
11:53 PM,1.0,-2.0,87,29.38,10.0,NNE,3.5,-,N/A,,Overcast,30,2013-02-21 08:53:00